| time (UTC) | temp C | wind direction | speed KPH | gust KPH | rain 1hr cm | rain 24hr cm | rain mn cm | humidity % | barometer mb |
| 20260505053039 | 15 | 229 | 3.2 | 14.5 | 0.00 | 0.33 | 0.00 | 93 | 1021.3 |
| 20260505051550 | 15 | 224 | 4.8 | 16.1 | 0.00 | 0.33 | 0.00 | 93 | 1021.2 |
| 20260505041539 | 15 | 226 | 1.6 | 8.0 | 0.00 | 0.33 | 0.00 | 93 | 1021.1 |
| 20260505040040 | 15 | 218 | 3.2 | 11.3 | 0.00 | 0.33 | 0.00 | 94 | 1021.3 |
| 20260505034540 | 14 | 203 | 1.6 | 8.0 | 0.00 | 0.33 | 0.00 | 93 | 1021.2 |
| 20260505033038 | 14 | 237 | 3.2 | 11.3 | 0.00 | 0.33 | 0.00 | 94 | 1021.3 |
| 20260505031544 | 14 | 215 | 4.8 | 11.3 | 0.00 | 0.33 | 0.00 | 94 | 1021.3 |
| 20260505030040 | 15 | 246 | 4.8 | 12.9 | 0.00 | 0.33 | 0.00 | 93 | 1021.5 |
| 20260505024537 | 15 | 0 | 3.2 | 12.9 | 0.00 | 0.33 | 0.33 | 94 | 1021.6 |
| 20260505023038 | 15 | 249 | 6.4 | 19.3 | 0.03 | 0.33 | 0.33 | 93 | 1021.5 |
| 20260505021542 | 15 | 231 | 9.7 | 19.3 | 0.13 | 0.33 | 0.33 | 93 | 1021.6 |
| 20260505020035 | 14 | 270 | 8.0 | 17.7 | 0.20 | 0.33 | 0.33 | 94 | 1021.6 |
| 20260505014541 | 14 | 250 | 9.7 | 16.1 | 0.30 | 0.33 | 0.33 | 94 | 1021.4 |
| 20260505013057 | 15 | 251 | 9.7 | 22.5 | 0.28 | 0.30 | 0.30 | 93 | 1021.4 |
| 20260505011537 | 15 | 249 | 11.3 | 22.5 | 0.18 | 0.20 | 0.20 | 93 | 1021.6 |
| 20260505010038 | 15 | 254 | 11.3 | 22.5 | 0.08 | 0.10 | 0.10 | 93 | 1021.4 |
| 20260505004542 | 15 | 278 | 4.8 | 16.1 | 0.00 | 0.03 | 0.03 | 93 | 1020.8 |
| 20260505003038 | 15 | 296 | 4.8 | 11.3 | 0.00 | 0.03 | 0.03 | 93 | 1020.9 |
| 20260505001537 | 15 | 269 | 8.0 | 17.7 | 0.00 | 0.03 | 0.03 | 93 | 1020.7 |
| 20260505000051 | 15 | 219 | 6.4 | 17.7 | 0.03 | 0.03 | 0.03 | 93 | 1020.6 |
| 20260504234538 | 15 | 258 | 6.4 | 17.7 | 0.03 | 0.03 | 0.03 | 93 | 1020.5 |
| 20260504233046 | 15 | 258 | 6.4 | 20.9 | 0.03 | 0.03 | 0.03 | 93 | 1020.6 |
| 20260504231539 | 15 | 253 | 9.7 | 17.7 | 0.03 | 0.03 | 0.03 | 94 | 1020.5 |
| 20260504230039 | 15 | 233 | 4.8 | 16.1 | 0.00 | 0.00 | 0.00 | 94 | 1020.5 |
| 20260504224537 | 15 | 256 | 9.7 | 20.9 | 0.00 | 0.00 | 0.00 | 94 | 1020.1 |
| 20260504223042 | 15 | 293 | 9.7 | 19.3 | 0.00 | 0.00 | 0.00 | 93 | 1020.3 |
| 20260504221535 | 15 | 235 | 8.0 | 16.1 | 0.00 | 0.00 | 0.00 | 93 | 1020.0 |
| 20260504220044 | 15 | 258 | 4.8 | 9.7 | 0.00 | 0.00 | 0.00 | 93 | 1019.9 |
| 20260504214545 | 15 | 258 | 4.8 | 12.9 | 0.00 | 0.00 | 0.00 | 93 | 1019.9 |
| 20260504213041 | 15 | 256 | 6.4 | 17.7 | 0.00 | 0.00 | 0.00 | 93 | 1019.7 |
| 20260504211539 | 15 | 260 | 6.4 | 22.5 | 0.00 | 0.00 | 0.00 | 92 | 1019.7 |
| 20260504210037 | 15 | 241 | 9.7 | 24.1 | 0.00 | 0.00 | 0.00 | 91 | 1019.5 |
| 20260504204540 | 15 | 249 | 12.9 | 27.4 | 0.00 | 0.00 | 0.00 | 91 | 1019.3 |
| 20260504203041 | 15 | 243 | 9.7 | 19.3 | 0.00 | 0.00 | 0.00 | 90 | 1019.1 |
| 20260504201545 | 15 | 238 | 6.4 | 14.5 | 0.00 | 0.00 | 0.00 | 90 | 1019.0 |
| 20260504200038 | 16 | 245 | 4.8 | 14.5 | 0.00 | 0.00 | 0.00 | 90 | 1018.6 |
| 20260504194536 | 16 | 255 | 4.8 | 12.9 | 0.00 | 0.00 | 0.00 | 90 | 1019.1 |
| 20260504193036 | 16 | 259 | 4.8 | 14.5 | 0.00 | 0.00 | 0.00 | 90 | 1019.3 |
| 20260504191545 | 16 | 232 | 6.4 | 17.7 | 0.00 | 0.00 | 0.00 | 89 | 1018.8 |
| 20260504190039 | 17 | 282 | 11.3 | 19.3 | 0.00 | 0.00 | 0.00 | 88 | 1019.2 |
| 20260504184552 | 17 | 270 | 4.8 | 14.5 | 0.00 | 0.00 | 0.00 | 88 | 1018.3 |
| 20260504183036 | 17 | 260 | 9.7 | 19.3 | 0.00 | 0.00 | 0.00 | 87 | 1018.8 |
| 20260504181538 | 17 | 271 | 6.4 | 17.7 | 0.00 | 0.00 | 0.00 | 87 | 1018.7 |
| 20260504180035 | 18 | 233 | 11.3 | 19.3 | 0.00 | 0.00 | 0.00 | 85 | 1019.0 |
| 20260504174541 | 18 | 268 | 9.7 | 19.3 | 0.00 | 0.00 | 0.00 | 84 | 1019.1 |
| 20260504173038 | 18 | 180 | 8.0 | 17.7 | 0.00 | 0.00 | 0.00 | 85 | 1019.0 |
| 20260504171538 | 17 | 256 | 9.7 | 17.7 | 0.00 | 0.00 | 0.00 | 87 | 1019.3 |
| 20260504081537 | 8 | 0 | 0.0 | 0.0 | 0.00 | 0.00 | 0.00 | 94 | 1019.5 |